EHI
3 5 7 8 9 13 14 14 13 11 8 8 8 7 7 6 4 1 0 0 0 0 0 0 0 0 0 0 0 0 0 0 0 0 0 0 0 0 0 0 0 0 0
6 7 8 8 8 12 14 14 13 11 9 8 8 7 7 7 4 1 0 0 0 0 0 0 0 0 0 0 0 0 0 0 0 0 0 0 0 0 0 0 0 0 0
10 10 9 8 8 10 13 14 13 11 9 9 9 8 7 7 5 2 0 0 0 0 0 0 0 0 0 0 0 0 0 0 0 0 0 0 0 0 0 0 0 0 0
12 11 9 9 8 9 11 13 13 11 10 9 9 8 6 4 3 2 1 0 0 1 0 0 0 0 0 0 0 0 0 0 0 0 0 0 0 0 0 0 0 0 0
14 11 9 9 8 8 10 11 11 11 10 8 8 7 4 2 2 2 1 0 0 1 0 0 0 0 0 0 0 0 0 0 0 0 0 0 0 0 0 0 0 0 0
14 11 9 10 10 8 8 8 8 9 9 8 8 6 4 2 2 2 2 1 1 1 0 0 0 0 0 0 0 0 0 0 0 0 0 0 0 0 0 0 0 0 0
13 12 11 11 10 7 5 6 7 7 7 8 8 7 4 3 2 2 2 1 1 0 0 0 1 1 1 0 0 0 0 0 0 0 0 0 0 0 0 0 0 0 0
14 13 12 11 9 6 4 5 6 6 6 7 7 6 4 3 3 2 2 1 1 0 0 1 2 2 1 0 0 0 0 0 0 0 0 0 0 0 0 0 0 0 0
14 12 11 10 9 7 5 4 5 6 6 6 6 5 4 3 3 2 2 1 1 1 1 2 2 1 0 0 0 0 0 0 0 0 0 0 0 0 0 0 0 0 0
13 11 10 10 9 8 6 4 4 3 4 4 5 4 2 2 2 2 1 1 2 2 3 3 2 1 0 0 0 0 0 0 0 0 0 0 0 0 0 0 0 0 0
11 10 10 10 10 9 6 4 3 1 1 1 2 1 1 1 1 0 0 0 1 3 4 4 2 1 1 0 0 0 0 0 0 0 0 0 0 0 0 0 0 0 0
7 8 9 9 10 9 6 4 3 1 0 0 0 0 0 0 0 0 0 0 1 2 3 3 2 1 1 0 0 0 0 0 0 0 0 0 0 0 0 0 0 0 0
6 7 8 9 9 8 6 4 3 2 1 0 0 0 0 0 0 0 0 0 0 1 1 1 1 0 0 0 0 0 0 0 0 0 0 0 0 0 0 0 0 0 0
5 6 7 8 8 7 6 5 4 2 1 0 0 0 0 0 0 0 0 0 0 0 0 0 0 0 0 0 0 0 0 0 0 0 0 0 0 0 0 0 0 0 0
5 5 6 7 7 7 6 6 4 2 1 0 0 0 0 0 0 0 0 0 0 0 0 0 0 0 0 0 0 0 0 0 0 0 0 0 0 0 0 0 0 0 0
4 4 5 6 6 6 6 6 4 2 1 0 0 0 0 0 0 0 0 0 0 0 0 0 0 0 0 0 0 0 0 0 0 0 0 0 0 0 0 0 0 0 0
4 3 4 5 6 6 6 6 4 2 1 0 0 0 0 0 0 0 0 0 0 0 0 0 0 0 0 0 0 0 0 0 0 0 0 0 0 0 0 0 0 0 0
3 3 2 3 5 6 6 6 4 2 1 0 0 0 0 0 0 0 0 0 0 0 0 0 0 0 0 0 0 0 0 0 0 0 0 0 0 0 0 0 0 0 0
3 3 1 1 3 4 6 6 5 3 1 0 0 0 0 0 0 0 0 0 0 0 0 0 0 0 0 0 0 0 0 0 0 0 0 0 0 0 0 0 0 0 0
3 3 2 1 1 3 5 6 6 4 2 0 0 0 0 0 0 0 0 0 0 0 0 0 0 0 0 0 0 0 0 0 0 0 0 0 0 0 0 0 0 0 0
3 3 2 1 0 1 3 4 5 5 3 1 0 0 0 0 0 0 0 0 0 0 0 0 0 0 0 0 0 0 0 0 0 0 0 0 0 0 0 0 0 0 0
3 3 2 1 0 0 1 2 4 4 3 1 0 0 0 0 0 0 0 0 0 0 0 0 0 0 0 0 0 0 0 0 0 0 0 0 0 0 0 0 0 0 0
2 2 1 0 0 0 0 1 2 3 2 1 0 0 0 0 0 0 0 0 0 0 0 0 0 0 0 0 0 0 0 0 0 0 0 0 0 0 0 0 0 0 0
1 1 0 0 0 0 0 0 1 2 1 0 0 0 0 0 0 0 0 0 0 0 0 0 0 0 0 0 0 0 0 0 0 0 0 0 0 0 0 0 0 0 0
0 0 0 0 0 0 0 0 0 0 0 0 0 0 0 0 0 0 0 0 0 0 0 0 0 0 0 0 0 0 0 0 0 0 0 0 0 0 0 0 0 0 0
0 0 0 0 0 0 0 0 0 0 0 0 0 0 0 0 0 0 0 0 0 0 0 0 0 0 0 0 0 0 0 0 0 0 0 0 0 0 0 0 0 0 0
Wind_Speed
4 5 6 7 7 7 8 8 9 9 9 9 10 11 11 11 10 10 11 11 11 12 12 12 13 12 13 13 14 14 14 14 14 14 14 14 14 15 15 14 13 9 16
3 4 4 6 7 8 9 8 9 8 8 9 9 10 10 11 10 10 10 11 11 11 12 12 12 12 13 13 13 13 14 14 14 14 13 11 12 13 14 13 12 9 15
3 3 3 6 8 8 8 9 8 9 8 8 8 9 9 10 10 10 10 10 11 11 11 12 12 12 12 12 12 12 13 13 13 13 11 6 7 13 13 12 13 14 14
3 3 4 7 8 9 9 8 9 8 8 8 8 8 9 9 10 10 10 10 10 10 11 11 12 12 12 12 11 12 12 12 12 11 6 5 5 11 12 12 13 13 13
4 4 4 7 8 9 9 9 9 9 8 8 8 8 8 8 9 9 9 9 9 9 10 11 11 11 11 11 11 11 12 12 11 9 5 4 4 10 12 12 12 12 12
4 5 5 8 8 9 9 9 10 9 8 8 8 8 8 8 8 8 8 8 8 8 9 10 10 10 10 10 11 11 11 11 9 5 4 4 3 9 11 11 11 11 11
4 5 5 9 9 9 9 9 9 9 9 8 8 8 8 7 7 7 8 8 8 8 8 9 9 9 10 10 10 10 10 10 6 4 4 3 4 9 10 10 10 10 10
5 5 5 8 10 10 9 9 9 9 10 9 8 7 7 7 6 7 7 7 8 8 8 8 9 9 9 9 9 9 9 8 6 4 3 3 5 9 9 9 9 9 10
5 5 5 5 6 8 10 10 9 9 9 9 8 8 7 7 6 6 6 6 7 7 7 8 8 8 8 8 8 8 8 8 4 2 3 2 5 8 8 8 8 8 9
6 6 6 6 6 5 5 8 10 9 9 9 9 9 8 6 6 6 5 5 6 7 7 7 7 7 8 8 8 8 8 6 3 3 2 2 5 7 8 8 8 8 8
6 6 6 6 6 6 5 6 7 8 8 8 7 9 7 4 3 4 5 5 5 6 6 6 6 7 7 7 7 7 6 3 3 2 1 3 5 6 6 7 7 7 7
4 5 5 5 5 5 4 4 3 4 5 5 4 5 4 3 3 4 5 5 5 5 5 5 6 6 5 3 4 5 2 3 2 1 1 3 5 6 6 6 6 6 7
1 3 4 4 4 4 4 3 3 2 3 4 4 4 3 3 2 2 2 3 3 4 2 3 4 3 3 2 2 2 2 2 1 1 1 2 3 5 5 6 5 5 6
2 3 3 4 4 4 3 2 2 2 2 2 3 4 3 2 2 1 1 1 1 1 2 2 2 2 2 2 2 2 1 1 1 1 1 2 2 4 4 5 5 5 6
3 3 3 3 3 3 3 2 3 2 2 2 2 3 3 2 2 1 1 1 1 1 1 1 2 2 2 1 1 1 1 1 1 1 1 1 1 2 3 4 4 5 5
3 3 3 3 3 3 2 2 2 2 2 2 2 2 3 2 1 2 1 0 0 0 0 1 1 1 1 1 1 1 0 0 0 0 1 1 1 0 2 3 4 4 4
2 3 3 2 3 2 2 2 2 1 2 2 2 2 2 2 1 1 1 1 0 0 1 1 1 1 1 1 0 0 0 0 0 0 0 1 1 1 1 2 3 3 3
3 3 3 3 3 2 2 2 2 2 2 2 2 2 2 3 2 1 1 1 1 1 1 1 1 1 1 1 0 0 0 0 1 1 0 0 0 1 1 1 1 2 2
2 3 3 4 3 3 2 2 2 2 2 2 2 2 3 3 3 2 2 2 1 1 1 2 1 2 1 1 1 1 1 1 1 1 1 1 1 0 0 1 0 1 0
2 2 3 4 3 3 2 1 1 2 2 2 2 3 3 3 3 2 2 2 1 1 1 2 1 1 1 1 1 0 1 1 1 2 2 1 1 1 1 0 0 1 1
3 3 3 4 4 3 2 2 1 2 3 3 3 4 4 4 3 2 2 2 2 2 2 2 2 2 2 1 1 0 1 1 2 2 2 2 1 1 1 1 1 0 1
3 3 3 3 4 3 2 2 1 2 2 2 3 3 4 4 4 3 3 2 2 2 2 2 2 2 2 2 2 1 0 1 1 2 2 2 2 1 1 1 1 1 1
3 4 4 3 4 4 3 2 2 2 2 2 3 3 4 4 4 4 4 3 3 3 3 3 3 4 3 2 2 2 2 2 1 1 2 2 2 1 1 1 2 2 2
3 3 3 4 4 4 3 2 2 2 3 4 3 4 5 4 4 4 4 4 3 3 3 3 3 3 4 4 3 2 2 2 2 2 2 1 2 2 2 2 2 2 2
3 3 3 3 4 4 4 3 2 2 3 3 3 4 4 4 4 4 4 3 3 3 3 3 3 3 3 4 3 3 2 1 2 2 3 2 2 2 2 2 2 2 2
4 3 3 3 4 4 4 4 3 3 4 4 4 4 4 4 4 4 4 3 3 3 3 4 4 5 4 4 4 4 3 3 3 2 2 3 3 2 2 2 3 3 2
Wind_Direction
333 338 345 4 31 47 59 72 79 81 84 87 89 91 92 97 98 99 98 95 93 92 92 92 91 90 87 87 87 84 81 78 77 74 75 80 85 88 87 83 80 77 84
333 335 357 17 35 48 56 63 70 74 82 87 87 90 92 95 97 97 96 94 93 93 94 94 93 91 89 88 88 85 82 81 79 74 70 70 79 87 89 86 84 86 85
6 353 9 31 40 46 52 58 65 71 76 84 86 89 92 94 94 94 97 96 95 94 94 94 93 91 90 89 89 87 85 84 80 75 70 61 77 88 89 89 87 87 88
22 14 14 42 45 49 51 55 62 68 72 77 80 84 89 91 94 93 92 94 96 97 95 94 95 93 91 91 91 89 88 86 81 76 64 56 67 88 89 89 89 89 90
35 20 16 47 49 51 54 52 56 61 68 72 73 76 83 87 92 93 90 90 92 96 97 96 95 98 96 95 94 92 90 85 80 71 62 57 61 87 90 89 91 92 93
38 25 23 44 51 54 55 52 52 56 63 68 70 71 74 83 89 90 88 88 89 92 99 100 98 100 99 98 97 94 92 86 75 65 59 56 64 89 91 91 91 94 97
39 32 34 44 46 52 54 51 51 54 57 62 66 70 71 76 84 87 88 89 89 91 94 96 101 101 101 101 100 94 91 85 75 66 60 60 80 94 95 94 93 93 95
48 40 43 43 43 43 47 47 48 52 54 52 56 62 65 68 76 82 89 93 93 91 95 94 96 103 105 102 99 94 89 82 78 70 62 62 87 95 96 94 95 95 96
49 42 36 37 39 39 38 37 42 48 50 50 48 51 54 58 66 79 80 91 96 92 87 90 92 100 107 104 98 92 86 82 73 63 66 64 89 95 96 96 98 98 98
52 42 34 28 28 27 30 35 36 38 43 46 45 41 42 46 53 67 66 76 91 94 88 86 88 91 99 103 98 92 86 80 66 59 55 80 93 99 99 98 100 100 99
43 37 34 29 26 20 23 34 35 36 36 41 43 40 38 31 34 46 47 59 76 93 93 90 89 86 83 92 92 89 81 65 66 54 51 96 108 109 104 100 101 102 101
32 28 30 28 26 23 26 30 32 31 28 24 22 24 22 20 21 35 43 53 62 78 89 90 88 85 73 67 74 75 64 66 63 47 52 96 115 118 111 106 102 104 107
50 35 25 26 27 28 24 26 26 25 22 21 19 16 17 19 23 28 32 43 44 57 64 69 68 56 59 63 64 60 62 63 53 23 28 78 111 120 119 117 111 110 116
42 28 21 22 26 27 24 23 26 21 19 13 4 8 15 16 10 18 20 28 44 42 59 64 67 65 61 63 76 80 67 62 48 22 11 47 95 125 125 127 123 121 122
33 18 8 16 24 21 25 18 24 6 2 350 354 358 0 7 357 347 358 14 48 64 76 90 89 86 76 68 64 83 79 72 74 38 0 15 63 128 138 136 136 134 134
13 2 355 13 18 20 21 9 6 355 345 339 339 338 347 355 343 338 314 275 48 96 116 140 145 126 114 99 68 50 131 91 96 30 340 324 330 192 175 165 162 159 157
2 356 356 10 12 11 13 2 359 343 341 326 323 324 334 341 327 333 296 257 230 178 151 131 140 119 130 116 110 345 32 213 247 283 308 314 305 292 239 205 183 173 177
11 2 356 1 2 0 6 355 344 338 336 324 315 310 322 329 326 301 293 261 246 201 170 169 162 150 160 159 208 259 250 240 242 252 250 245 286 308 275 264 181 156 177
16 4 356 353 355 353 354 356 341 333 335 323 317 315 314 314 322 297 289 267 231 209 194 188 193 177 178 181 224 241 240 229 234 229 241 212 199 205 231 284 7 79 157
15 9 4 359 355 350 354 3 354 349 342 330 321 313 313 314 312 313 294 275 238 206 209 189 202 195 177 174 193 257 262 248 222 211 218 216 202 196 177 172 219 274 283
13 9 3 3 353 355 348 340 337 330 328 327 324 326 324 316 305 302 303 279 259 225 218 200 188 189 175 150 110 6 308 253 224 219 210 208 208 214 187 186 190 185 272
358 353 354 353 343 342 333 312 291 301 304 306 315 323 322 319 317 300 303 279 265 256 232 212 189 182 190 171 147 142 250 284 260 233 219 207 212 218 218 212 200 198 215
349 343 341 335 333 332 334 341 345 341 333 329 327 325 324 317 311 307 297 280 256 243 232 227 209 198 193 198 179 168 175 220 278 255 230 214 206 217 229 219 217 219 213
322 331 335 333 332 334 340 340 320 317 310 307 308 307 310 310 307 305 302 290 261 246 237 238 226 218 196 198 198 202 205 178 195 243 262 243 233 228 223 228 230 226 214
323 331 328 339 340 340 337 318 298 292 296 305 310 307 313 312 311 310 306 301 286 261 245 239 245 225 215 207 198 191 194 221 214 206 234 238 256 240 231 232 226 227 227
335 334 334 345 340 343 335 323 315 297 300 306 309 307 313 310 310 314 315 304 293 280 259 249 241 233 224 221 214 200 194 198 203 208 222 230 244 244 244 230 221 228 231